Overview Statistics Trail Chart Weather Telemetry Raw packets
 

This is the latest recevied weather packets stored in our database for station/object KO4DYK. If no packets are shown the sender has not sent any weather packets the latest 10 day(s).

<< 84 85 86 87 88 89 90 >>
Time Temp. Humidity Pressure Rain* Wind** Luminosity Snow
1788038838 33.89° C 47% 1018.4 hPa 0 mm - 82 W/m² -
1788038533 32.22° C 50% 1018.3 hPa 0 mm - 469 W/m² -
1788038231 32.22° C 50% 1018.4 hPa 0 mm - 107 W/m² -
1788037927 32.78° C 49% 1018.5 hPa 0 mm - 80 W/m² -
1788037621 33.33° C 47% 1018.5 hPa 0 mm - 111 W/m² -
1788037317 33.89° C 45% 1018.6 hPa 0 mm - 114 W/m² -
1788037015 33.89° C 44% 1018.5 hPa 0 mm - 506 W/m² -
1788036712 33.89° C 45% 1018.7 hPa 0 mm - 475 W/m² -
1788036408 36.11° C 41% 1018.7 hPa 0 mm - 98 W/m² -
1788036102 36.11° C 40% 1018.6 hPa 0 mm - 503 W/m² -
1788035802 35° C 44% 1018.8 hPa 0 mm - 542 W/m² -
1788035498 35° C 44% 1018.7 hPa 0 mm - 579 W/m² -
1788035192 35° C 44% 1018.8 hPa 0 mm - 590 W/m² -
1788034889 35.56° C 42% 1019.1 hPa 0 mm - 594 W/m² -
1788034584 36.11° C 42% 1019 hPa 0 mm - 591 W/m² -
1788034281 36.11° C 40% 1019 hPa 0 mm - 620 W/m² -
1788033980 35.56° C 41% 1019.1 hPa 0 mm - 592 W/m² -
1788033675 36.67° C 41% 1019.2 hPa 0 mm - 106 W/m² -
1788033374 36.11° C 41% 1019.2 hPa 0 mm - 614 W/m² -
1788033069 35.56° C 42% 1019.3 hPa 0 mm - 649 W/m² -
1788032769 35° C 41% 1019.5 hPa 0 mm - 615 W/m² -
1788032464 37.22° C 37% 1019.5 hPa 0 mm - 678 W/m² -
1788032160 36.67° C 38% 1019.4 hPa 0 mm - 681 W/m² -
1788031857 36.11° C 39% 1019.5 hPa 0 mm - 688 W/m² -
1788031556 35° C 42% 1019.5 hPa 0 mm - 675 W/m² -

* Rain latest hour (hover to see other rain measurements)
** Current wind speed in m/s (hover to see current wind gust speed)